Moffett NAS, CA

8:18 PM PDT on June 22, 2017 (GMT -0700)
Moffett Federal Air Field

Weather History for KNUQ - March, 2007

Change the Weather History Date:

Saturday, March 31, 2007

  Actual Average Record
Temperature  
Mean Temperature 57 °F 57 °F  
Max Temperature 69 °F 67 °F 83 °F (2011)
Min Temperature 46 °F 48 °F 37 °F (2008)
Degree Days  
Heating Degree Days 8    
Month to date heating degree days  
Since 1 July heating degree days  
Cooling Degree Days 0    
Month to date cooling degree days  
Year to date cooling degree days  
Growing Degree Days 7 (Base 50)    
Moisture  
Dew Point 45 °F    
Average Humidity 67    
Maximum Humidity 86    
Minimum Humidity 32    
Precipitation  
Precipitation 0.00 in 0.05 in 1.32 in (1982)
Month to date precipitation 2.26  
Year to date precipitation 8.08  
Sea Level Pressure  
Sea Level Pressure 30.09 in    
Wind  
Wind Speed 3 mph (NNW)    
Max Wind Speed 21 mph    
Max Gust Speed -    
Visibility 10 miles    
Events      
T = Trace of Precipitation, MM = Missing Value Source: NWS Daily Summary

Daily Weather History Graph

Daily Weather History Graph

Search for Another Location

Airport or City:

Trip Planner

Search our weather history database for the weather conditions in past years. The results will help you decide how hot, cold, wet, or windy it might be!

Date:

Astronomy

Mar. 31, 2007 Rise Set
Actual Time 6:55 AM PDT 7:29 PM PDT
Civil Twilight 6:29 AM PDT 7:56 PM PDT
Nautical Twilight 5:58 AM PDT 8:27 PM PDT
Astronomical Twilight 5:26 AM PDT 8:58 PM PDT
Moon 5:57 PM PDT (3/31) 6:00 AM PDT (3/31)
Length of Visible Light 13h 26m
Length of Day
12h 34m
Waxing Gibbous, 97% of the Moon is Illuminated
Mar 31
Waxing Gibbous
Apr 2
Full
Apr 10
Last Quarter
Apr 17
New
Apr 23
First Quarter

Hourly Weather History & Observations

Time (PDT) Temp. Dew Point Humidity Pressure Visibility Wind Dir Wind Speed Gust Speed Precip Events Conditions
12:56 AM 53.1 °F 46.0 °F 77% 30.14 in 10.0 mi Calm Calm - N/A   Clear
1:56 AM 52.0 °F 46.9 °F 83% 30.14 in 10.0 mi Calm Calm - N/A   Clear
2:56 AM 51.1 °F 45.0 °F 80% 30.14 in 10.0 mi Calm Calm - N/A   Clear
3:56 AM 50.0 °F 44.1 °F 80% 30.13 in 10.0 mi Calm Calm - N/A   Clear
4:56 AM 48.0 °F 42.1 °F 80% 30.12 in 10.0 mi Calm Calm - N/A   Clear
5:56 AM 46.9 °F 42.1 °F 83% 30.12 in 10.0 mi Calm Calm - N/A   Clear
6:56 AM 46.9 °F 42.1 °F 83% 30.13 in 10.0 mi Calm Calm - N/A   Clear
7:56 AM 48.9 °F 45.0 °F 86% 30.14 in 9.0 mi Calm Calm - N/A   Clear
8:56 AM 53.1 °F 46.9 °F 80% 30.14 in 8.0 mi Calm Calm - N/A   Clear
9:56 AM 55.9 °F 48.0 °F 75% 30.14 in 8.0 mi Calm Calm - N/A   Clear
10:56 AM 61.0 °F 48.0 °F 62% 30.14 in 9.0 mi Calm Calm - N/A   Clear
11:56 AM 63.0 °F 46.9 °F 56% 30.12 in 10.0 mi Calm Calm - N/A   Clear
12:56 PM 68.0 °F 37.0 °F 32% 30.09 in 10.0 mi North 12.7 mph - N/A   Clear
1:56 PM 68.0 °F 37.0 °F 32% 30.08 in 10.0 mi North 12.7 mph - N/A   Clear
2:56 PM 64.9 °F 52.0 °F 63% 30.06 in 10.0 mi NNW 16.1 mph - N/A   Clear
3:56 PM 66.0 °F 54.0 °F 65% 30.04 in 10.0 mi NNW 20.7 mph - N/A   Clear
4:56 PM 66.9 °F 54.0 °F 63% 30.03 in 10.0 mi North 16.1 mph - N/A   Clear
5:56 PM 64.0 °F 51.1 °F 63% 30.03 in 10.0 mi NNW 13.8 mph - N/A   Clear
6:56 PM 64.0 °F 39.0 °F 40% 30.02 in 10.0 mi NNW 8.1 mph - N/A   Clear
7:56 PM 62.1 °F 35.1 °F 37% 30.03 in 10.0 mi NW 3.5 mph - N/A   Clear
8:56 PM 55.9 °F 46.0 °F 69% 30.04 in 10.0 mi North 8.1 mph - N/A   Clear
9:56 PM 55.0 °F 46.9 °F 74% 30.05 in 10.0 mi Calm Calm - N/A   Clear
10:56 PM 54.0 °F 46.0 °F 75% 30.04 in 10.0 mi Calm Calm - N/A   Clear
11:56 PM 52.0 °F 46.0 °F 80% 30.04 in 10.0 mi Calm Calm - N/A   Clear